When you browse on this site, cookies collect data to enhance your experience and personalize the content and advertising you see.
Visit our Privacy Policy to learn more. By continuing to use the site, you agree to this use of cookies and data.
  • In Hungary
  • List of Countries
  • For 7 days
  • Water Temperature
  • Satellite Maps
  • Weather Map
  • News
  • Weather Widgets
  • user-avatar
    Login

    Hourly Weather Kaspis

    Today, 10 December, Monday

    Time Temperature Precipitation Wind Pressure Humidity
    00:00 +3°C° 0 mm 1 mps 682 mmHg 75%
    01:00 +2°C° 0 mm 1 mps 682 mmHg 75%
    02:00 +2°C° 0 mm 1 mps 682 mmHg 75%
    03:00 +2°C° 0 mm 1 mps 682 mmHg 74%
    04:00 +2°C° 0 mm 1 mps 681 mmHg 73%
    05:00 +2°C° 0 mm 1 mps 681 mmHg 72%
    06:00 +2°C° 0 mm 1 mps 681 mmHg 71%
    07:00 +3°C° 0 mm 1 mps 681 mmHg 68%
    08:00 +3°C° 0 mm 1 mps 681 mmHg 65%
    09:00 +5°C° 0 mm 1 mps 681 mmHg 61%
    10:00 +6°C° 0 mm 1 mps 681 mmHg 59%
    11:00 +6°C° 0 mm 2 mps 680 mmHg 57%
    12:00 +7°C° 0 mm 2 mps 680 mmHg 56%
    13:00 +7°C° 0 mm 2 mps 680 mmHg 56%
    14:00 +7°C° 0 mm 2 mps 680 mmHg 56%
    15:00 +7°C° 0 mm 2 mps 679 mmHg 56%
    16:00 +7°C° 0 mm 1 mps 680 mmHg 59%
    17:00 +6°C° 0 mm 1 mps 680 mmHg 61%
    18:00 +5°C° 0 mm 1 mps 680 mmHg 64%
    19:00 +4°C° 0 mm 1 mps 680 mmHg 64%
    20:00 +4°C° 0 mm 1 mps 680 mmHg 64%
    21:00 +4°C° 0 mm 1 mps 680 mmHg 63%
    22:00 +4°C° 0 mm 1 mps 680 mmHg 63%
    23:00 +4°C° 0 mm 1 mps 680 mmHg 63%

    Tomorrow, 11 December, Tuesday

    Time Temperature Precipitation Wind Pressure Humidity
    00:00 +4°C° 0 mm 1 mps 680 mmHg 64%
    01:00 +3°C° 0 mm 1 mps 680 mmHg 64%
    02:00 +3°C° 0 mm 1 mps 680 mmHg 64%
    03:00 +3°C° 0 mm 1 mps 680 mmHg 64%
    04:00 +3°C° 0 mm 1 mps 680 mmHg 64%
    05:00 +3°C° 0 mm 1 mps 679 mmHg 64%
    06:00 +3°C° 0 mm 1 mps 679 mmHg 63%
    07:00 +4°C° 0 mm 1 mps 679 mmHg 62%
    08:00 +5°C° 0 mm 1 mps 679 mmHg 60%
    09:00 +6°C° 0 mm 1 mps 679 mmHg 58%
    10:00 +6°C° 0 mm 2 mps 679 mmHg 57%
    11:00 +7°C° 0 mm 2 mps 678 mmHg 56%
    12:00 +8°C° 0 mm 2 mps 678 mmHg 54%
    13:00 +8°C° 0.1 mm 2 mps 678 mmHg 57%
    14:00 +7°C° 0.1 mm 2 mps 678 mmHg 59%
    15:00 +7°C° 0.1 mm 2 mps 677 mmHg 62%
    16:00 +7°C° 0.4 mm 2 mps 678 mmHg 65%
    17:00 +6°C° 0.4 mm 2 mps 678 mmHg 69%
    18:00 +5°C° 0.4 mm 2 mps 678 mmHg 72%
    19:00 +5°C° 0.3 mm 2 mps 678 mmHg 73%
    20:00 +5°C° 0.3 mm 2 mps 678 mmHg 74%
    21:00 +5°C° 0.3 mm 2 mps 678 mmHg 74%
    22:00 +5°C° 0.3 mm 2 mps 678 mmHg 75%
    23:00 +5°C° 0.3 mm 2 mps 678 mmHg 76%

    Day after tomorrow, 12 December, Wednesday

    Time Temperature Precipitation Wind Pressure Humidity
    00:00 +4°C° 0.3 mm 2 mps 679 mmHg 77%
    01:00 +4°C° 0.5 mm 2 mps 679 mmHg 80%
    02:00 +5°C° 0.5 mm 1 mps 679 mmHg 82%
    03:00 +5°C° 0.5 mm 1 mps 680 mmHg 84%
    04:00 +5°C° 0.2 mm 1 mps 680 mmHg 83%
    05:00 +4°C° 0.2 mm 1 mps 680 mmHg 82%
    06:00 +4°C° 0.2 mm 1 mps 680 mmHg 81%
    07:00 +5°C° 0 mm 1 mps 680 mmHg 78%
    08:00 +5°C° 0 mm 1 mps 680 mmHg 75%
    09:00 +5°C° 0 mm 1 mps 680 mmHg 72%
    10:00 +6°C° 0.1 mm 1 mps 680 mmHg 70%
    11:00 +6°C° 0.1 mm 2 mps 679 mmHg 67%
    12:00 +6°C° 0.1 mm 2 mps 678 mmHg 64%
    13:00 +6°C° 0.7 mm 2 mps 677 mmHg 67%
    14:00 +5°C° 0.7 mm 2 mps 677 mmHg 70%
    15:00 +5°C° 0.7 mm 2 mps 677 mmHg 73%
    16:00 +4°C° 0.6 mm 2 mps 677 mmHg 76%
    17:00 +4°C° 0.6 mm 2 mps 677 mmHg 78%
    18:00 +4°C° 0.6 mm 2 mps 677 mmHg 81%
    19:00 +4°C° 1.3 mm 2 mps 676 mmHg 82%
    20:00 +3°C° 1.3 mm 2 mps 676 mmHg 83%
    21:00 +3°C° 1.3 mm 2 mps 676 mmHg 85%
    22:00 +2°C° 1 mm 3 mps 676 mmHg 85%
    23:00 +2°C° 1 mm 3 mps 676 mmHg 85%

    13 December, Thursday

    Time Temperature Precipitation Wind Pressure Humidity
    00:00 +2°C° 1 mm 3 mps 676 mmHg 85%
    01:00 +3°C° 0.6 mm 2 mps 677 mmHg 87%
    02:00 +2°C° 0.6 mm 2 mps 677 mmHg 88%
    03:00 +3°C° 0.6 mm 1 mps 677 mmHg 89%
    04:00 +3°C° 1.1 mm 1 mps 677 mmHg 89%
    05:00 +3°C° 1.1 mm 1 mps 678 mmHg 90%
    06:00 +3°C° 1.1 mm 1 mps 678 mmHg 90%
    07:00 +2°C° 0.2 mm 2 mps 679 mmHg 88%
    08:00 +2°C° 0.2 mm 3 mps 680 mmHg 87%
    09:00 +2°C° 0.2 mm 3 mps 680 mmHg 86%
    10:00 +1°C° 0 mm 4 mps 681 mmHg 83%
    11:00 +3°C° 0 mm 4 mps 681 mmHg 81%
    12:00 +2°C° 0 mm 5 mps 681 mmHg 78%
    13:00 +3°C° 0 mm 4 mps 682 mmHg 77%
    14:00 +3°C° 0 mm 4 mps 682 mmHg 76%
    15:00 +1°C° 0 mm 4 mps 682 mmHg 76%
    16:00 +1°C° 0 mm 3 mps 683 mmHg 78%
    17:00 0°C° 0 mm 3 mps 683 mmHg 80%
    18:00 -1°C° 0 mm 3 mps 684 mmHg 82%
    19:00 -1°C° 0 mm 2 mps 684 mmHg 82%
    20:00 -1°C° 0 mm 2 mps 684 mmHg 82%
    21:00 -2°C° 0 mm 2 mps 685 mmHg 82%
    22:00 -2°C° 0 mm 2 mps 685 mmHg 82%
    23:00 -3°C° 0 mm 2 mps 685 mmHg 81%

    14 December, Friday

    Time Temperature Precipitation Wind Pressure Humidity
    00:00 -3°C° 0 mm 2 mps 685 mmHg 80%
    01:00 -3°C° 0 mm 2 mps 685 mmHg 79%
    02:00 -4°C° 0 mm 2 mps 686 mmHg 77%
    03:00 -2°C° 0 mm 1 mps 686 mmHg 75%
    04:00 -2°C° 0 mm 1 mps 686 mmHg 74%
    05:00 -2°C° 0 mm 1 mps 686 mmHg 72%
    06:00 -2°C° 0 mm 1 mps 686 mmHg 70%
    07:00 -2°C° 0 mm 1 mps 686 mmHg 69%
    08:00 -1°C° 0 mm 1 mps 686 mmHg 67%
    09:00 0°C° 0 mm 1 mps 686 mmHg 66%
    10:00 -1°C° 0 mm 2 mps 685 mmHg 66%
    11:00 +1°C° 0 mm 2 mps 685 mmHg 66%
    12:00 +1°C° 0 mm 2 mps 684 mmHg 66%
    13:00 +1°C° 0 mm 2 mps 684 mmHg 68%
    14:00 +1°C° 0 mm 2 mps 684 mmHg 69%
    15:00 +1°C° 0 mm 2 mps 684 mmHg 71%
    16:00 -1°C° 0.1 mm 2 mps 684 mmHg 74%
    17:00 -1°C° 0.1 mm 2 mps 684 mmHg 77%
    18:00 0°C° 0.1 mm 1 mps 685 mmHg 80%
    19:00 0°C° 0.1 mm 1 mps 685 mmHg 80%
    20:00 -1°C° 0.1 mm 1 mps 685 mmHg 81%
    21:00 -1°C° 0.1 mm 1 mps 685 mmHg 81%
    22:00 -1°C° 0 mm 1 mps 685 mmHg 81%
    23:00 -1°C° 0 mm 1 mps 685 mmHg 80%

    15 December, Saturday

    Time Temperature Precipitation Wind Pressure Humidity
    00:00 -2°C° 0 mm 1 mps 685 mmHg 80%
    01:00 -2°C° 0 mm 1 mps 685 mmHg 79%
    02:00 -2°C° 0 mm 1 mps 686 mmHg 78%
    03:00 -2°C° 0 mm 1 mps 686 mmHg 78%
    04:00 -1°C° 0 mm 1 mps 686 mmHg 78%
    05:00 -1°C° 0 mm 1 mps 686 mmHg 78%
    06:00 -1°C° 0 mm 1 mps 686 mmHg 78%
    07:00 0°C° 0 mm 1 mps 687 mmHg 78%
    08:00 0°C° 0 mm 1 mps 687 mmHg 78%
    09:00 +1°C° 0 mm 1 mps 687 mmHg 78%
    10:00 +1°C° 0 mm 2 mps 687 mmHg 77%
    11:00 +2°C° 0 mm 2 mps 687 mmHg 75%
    12:00 +2°C° 0 mm 3 mps 687 mmHg 73%
    13:00 +2°C° 0 mm 3 mps 687 mmHg 74%
    14:00 +2°C° 0 mm 3 mps 687 mmHg 75%
    15:00 +2°C° 0 mm 3 mps 687 mmHg 75%
    16:00 +2°C° 0 mm 2 mps 687 mmHg 79%
    17:00 +1°C° 0 mm 2 mps 688 mmHg 82%
    18:00 -1°C° 0 mm 2 mps 688 mmHg 86%
    19:00 -2°C° 0 mm 2 mps 688 mmHg 86%
    20:00 -2°C° 0 mm 2 mps 689 mmHg 87%
    21:00 -2°C° 0 mm 2 mps 689 mmHg 87%
    22:00 -2°C° 0 mm 2 mps 689 mmHg 87%
    23:00 -3°C° 0 mm 2 mps 689 mmHg 86%
    Show more